Find Starlink 11579

NORAD ID: 63143 Int'l Des: 2025-043 Owner: SPXS Country: US Constellation: starlink operational
LEOCIRCULAR

リアルタイム位置

3D地球を読み込み中...

Starlink 11579について

説明を読み込み中...

次回通過

Passes for default location (London). Set your location on the main map for personalized predictions.

高度履歴

Loading altitude history...

軌道要素

1 63143U 25043M 26126.72665167 .00189893 00000-0 14426-2 0 9995
2 63143 42.9995 260.5463 0003930 243.2661 116.7805 15.70953841 68489
Epoch: May 6, 2026 • Age: 8 hours

現在のステータス

高度 361.3 km
速度 7.70 km/s
衛星直下点 43.08°N, 105.98°E
打ち上げ日 Mar 3, 2025
運用期間 1.1 years
タイプ internet

技術仕様

分類 Payload
質量 960.00 kg
乾燥質量 910.00 kg
総質量 960.00 kg
長さ 0.30 m
直径 4.10 m
スパン 29.00 m
形状 Box + pan
製造者 SPXS
バスタイプ Starlink V2MD
フェーズステータス In Orbit
所有者/国 SPXS/US

Most Searched